Orbital Elements at Epoch 2459000.5 (2020-May-31.0) TDB
Reference: JPL 19 (heliocentric ecliptic J2000)
Element | Value | Uncertainty (1-sigma) | Units |
e | .1232773875612939 | 3.5864e-08 | |
a | 3.181095396864818 | 2.2567e-08 | au |
q | 2.788938266756066 | 1.2277e-07 | au |
i | 6.243831292776294 | 4.8508e-06 | deg |
node | 56.40926347709906 | 4.4799e-05 | deg |
peri | 29.71982598030703 | 5.0297e-05 | deg |
M | 279.0573402945522 | 2.3296e-05 | deg |
tp | 2459466.449056605208 (2021-Sep-08.94905661) | 0.00013551 | TDB |
period | 2072.351723902953 5.67 | 2.2052e-05 6.038e-08 | d yr |
n | .1737156853480431 | 1.8485e-09 | deg/d |
Q | 3.573252526973571 | 2.5349e-08 | au |
|
| | Orbit Determination Parameters
Additional Information
|